www.pogodaiklimat.ru

Погода и климат >> Архив погоды >> Греция >> Сития


ПОГОДА в Ситии

  • Прогноз погоды в Ситии
  • Монитор погоды в Ситии

АРХИВ ПОГОДЫ в Ситии

Время (UTC), дата Ветер
(напр.,м/с)
 
Видим.   Явления Облачность Т
(С)
Тd
(С)
f
(%)
Тe
(С)
Тes
(С)
Комфортность P
(гПа)
Po
(гПа)
Тmin
(С)
Tmax
(С)
R
(мм)
R24
(мм)
S
(см)
18 18.06 З 8
{12}
10 км 4/1 600 м
[Cu hum Ci fib]
+24.6 +18.5 69 +29 +29 душно 1011.5 1008.3 +28.6
21 18.06 З 6
{10}
10 км 1/1 600 м
[Cu hum]
+23.8 +19.2 75 +29 +29 душно 1012.3 1009.0
00 19.06 З 7
{11}
н/о {осадки} н/о +24.3 +15.6 58 +27 +27 жарко 1010.8 997.9 0.0
03 19.06 З 5
{10}
н/о в посл. час осадки н/о +24.2 +15.4 58 +27 +27 жарко 1010.8 997.9
06 19.06 З 8
{11}
н/о {осадки} н/о +25.9 +16.1 55 +29 +29 душно 1011.5 998.6 +23.6 0.0
09 19.06 З 8
{12}
н/о н/о +27.5 +10.3 34 +28 +28 жарко 1012.1 999.2
12 19.06 СЗ 8
{13}
10 км 3/3 600 м
[Cu hum]
+26.6 +19.9 67 +33 +35 очень
душно
1011.5 1008.3
15 19.06 З 8
{12}
н/о в посл. час осадки н/о +26.2 +18.7 63 +31 +31 очень
душно
1010.6 997.8
18 19.06 нст 3
{11}
н/о {осадки} н/о +24.9 +14.0 51 +27 +27 жарко 1011.4 998.5 +28.2 0.0
21 19.06 ЮЗ 3
{8}
н/о н/о +24.2 +13.0 50 +26 +26 жарко 1011.7 998.7
00 20.06 З 6
{8}
н/о в посл. час осадки н/о +24.1 +14.8 56 +27 +27 жарко 1010.7 997.8 0.0
03 20.06 З 5
{9}
н/о {осадки} н/о +23.8 +14.9 57 +27 +27 жарко 1010.6 997.6
06 20.06 З 6
{8}
10 км 3/3 600 м
[Cu hum]
+25.6 +16.9 59 +29 +31 душно 1010.9 1007.7 +23.6
09 20.06 З 5
{9}
10 км 3/3 600 м
[Cu hum]
+26.2 +21.2 74 +33 +40 очень
душно
1011.5 1008.3
12 20.06 СЗ 6
{9}
10 км 3/3 600 м
[Cu hum]
+26.6 +20.4 69 +33 +38 очень
душно
1011.5 1008.3
15 20.06 З 6
{9}
10 км ясно +26.2 +17.2 58 +30 +32 душно 1010.7 1007.5
18 20.06 З 3
{9}
н/о в посл. час осадки н/о +24.4 +17.7 66 +28 +28 душно 1011.1 998.2 +27.1 0.0
21 20.06 З 5
{9}
н/о осадки н/о +23.9 +19.8 78 +29 +29 душно 1012.0 999.0
00 21.06 З 6
{9}
н/о осадки н/о +23.7 +20.4 82 +29 +29 душно 1011.2 998.3 0.0
03 21.06 З 5
{10}
н/о {осадки} н/о +23.9 +16.7 64 +27 +27 жарко 1011.2 998.3
06 21.06 З 7
{12}
10 км 1/1 600 м
[Cu hum]
+25.6 +17.9 62 +30 +31 душно 1012.1 1008.9 +23.6
09 21.06 СЗ 9
{13}
10 км 1/1 600 м
[Cu hum]
+26.4 +20.9 72 +33 +35 очень
душно
1012.3 1009.1
12 21.06 СЗ 9
{13}
10 км ясно +27.4 +20.3 65 +34 +36 очень
душно
1011.9 1008.7
15 21.06 СЗ 7
{12}
10 км ясно +26.8 +17.9 58 +31 +33 душно 1011.3 1008.1
18 21.06 З 5
{10}
н/о осадки н/о +25.4 +16.8 59 +29 +29 душно 1011.3 998.5 +28.0 0.0
21 21.06 З 7
{10}
н/о в посл. час осадки н/о +25.1 +15.9 57 +28 +28 жарко 1011.8 998.9
00 22.06 З 9
{13}
н/о осадки н/о +24.4 +19.8 76 +30 +30 очень
душно
1011.4 998.5 0.0
03 22.06 З 8
{13}
н/о осадки н/о +24.6 +18.5 69 +29 +29 душно 1011.3 998.4
06 22.06 З 9
{16}
н/о в посл. час осадки н/о +25.9 +19.1 66 +31 +31 очень
душно
1011.3 998.4 +24.1 0.0
09 22.06 СЗ 9
{14}
10 км 1/1 600 м
[Cu hum]
+27.0 +21.3 71 +34 +36 очень
душно
1011.9 1008.7
12 22.06 З 11
{16}
н/о {осадки} н/о +27.4 +12.0 38 +29 +29 жарко 1012.1 999.2 0.0
15 22.06 З 10
{15}
н/о осадки н/о +26.7 +14.6 47 +29 +29 жарко 1011.3 998.4
18 22.06 З 9
{14}
н/о осадки н/о +25.0 +20.6 77 +31 +31 очень
душно
1011.5 998.6 +27.8 0.0
21 22.06 З 9
{15}
н/о осадки н/о +24.6 +20.7 79 +31 +31 очень
душно
1011.8 998.9
00 23.06 З 10
{16}
н/о осадки н/о +25.1 +19.4 71 +30 +30 душно 1011.1 998.2 0.0
03 23.06 З 9
{15}
н/о осадки н/о +25.2 +19.2 69 +30 +30 душно 1011.9 999.0
06 23.06 СЗ 7
{6}
10 км 1/1 600 м
[Cu hum]
+26.0 +20.5 72 +32 +34 очень
душно
1012.9 1009.7 +24.6
09 23.06 З 7
{13}
10 км ясно +27.0 +21.0 70 +34 +39 очень
душно
1012.9 1009.7
12 23.06 З 10
{14}
н/о {осадки} н/о +28.0 +18.7 57 +33 +33 очень
душно
1013.3 1000.5 0.0
15 23.06 З 7
{14}
10 км ясно +28.0 +19.3 59 +34 +35 очень
душно
1012.6 1009.4
18 23.06 СЗ 7
{15}
10 км ясно +26.2 +19.2 65 +31 +31 очень
душно
1013.1 1009.9 +28.8
21 23.06 З 5
{9}
н/о н/о +26.4 +17.4 58 +31 +31 душно 1013.2 1000.3
00 24.06 З 4
{7}
н/о в посл. час осадки н/о +25.6 +18.2 64 +30 +30 душно 1012.9 1000.0 0.0
03 24.06 нст 2
{8}
н/о {осадки} н/о +25.6 +14.3 50 +28 +28 жарко 1012.8 999.9
06 24.06 СЗ 3
{5}
н/о {осадки} н/о +29.3 +13.6 38 +31 +31 жарко 1012.6 999.8 +24.9 0.0
09 24.06 СЗ 3
{6}
н/о н/о +32.4 +12.2 29 +33 +33 жарко 1012.2 999.6
12 24.06 СЗ 3
{5}
10 км ясно +32.8 +10.5 25 +32 +49 жарко 1011.4 1008.2
15 24.06 СЗ 3
{6}
10 км ясно +32.8 +11.8 28 +33 +37 жарко 1010.3 1007.1
18 24.06 СЗ 2
{4}
н/о н/о +28.6 +16.3 47 +32 +32 душно 1010.6 997.8 +33.6
21 24.06 нст 1
{2}
н/о н/о +27.5 +12.4 39 +29 +29 жарко 1010.4 997.6
00 25.06 СЗ 2
{4}
н/о н/о +25.3 +16.8 59 +29 +29 душно 1009.3 996.5
03 25.06 нст 1
{3}
н/о осадки н/о +23.9 +20.7 82 +30 +30 очень
душно
1009.5 996.6
06 25.06 СЗ 5
{7}
н/о {осадки} н/о +26.0 +20.9 74 +33 +33 очень
душно
1009.8 996.9 +23.4 0.0
09 25.06 СЗ 6
{12}
10 км 3/3 600 м
[Cu hum]
+27.6 +20.7 66 +34 +39 очень
душно
1010.4 1007.2
12 25.06 СЗ 5
{9}
10 км 3/3 600 м
[Cu hum]
+27.8 +22.4 72 +36 +43 очень
душно
1010.7 1007.5

 

Местоположение метеостанции Сития (Греция): широта 35.20 долгота 26.10 высота над уровнем моря 28 м.

В архиве по умолчанию представлена погода в Ситии за последнюю неделю. Архивные данные за месяц целиком и за предыдущие месяцы, начиная с января 2011 года, Вы можете получить, выбрав интересующий диапазон дат из раскрывающегося списка и нажав кнопку "Ввод!".


*Определитесь, кто Вы:
робот инопланетянин человек

Внимание! Время в таблицах - всемирное. Для получения местного времени необходимо прибавить поправку, которая равна 2 ч.

Смотрите также архив погоды в соседних городах и на ближайших метеорологических станциях:

Погода в Кастели (Греция) (71 км)
Погода в Касосе (Греция) (77 км)
Погода в Ираклионе (Греция) (85 км)
Погода в Карпатосе (Греция) (110 км)
Погода в Астипалее (Греция) (155 км)
Погода на Суде (Греция) (182 км)
Погода на Косе (Греция) (196 км)
Погода в Калимносе (Греция) (210 км)
Погода в Леросе (Греция) (214 км)
Погода в Датче (Турция) (219 км)

Пояснения к столбцам:

Ветер - указаны скорость ветра в м/с - средняя за 10 мин, порывы в срок и между сроками (в фигурных скобках) и направление, откуда дует ветер: С - северный, СВ - северо-восточный, В - восточный, ЮВ - юго-восточный, Ю - южный, ЮЗ - юго-западный, З - западный, СЗ - северо-западный.
Видимость - горизонтальная дальность видимости в метрах или километрах. При видимости от 1 до 10 км при отсутствии осадков обычно наблюдается дымка, при ухудшении видимости до 1 км и менее - туман. В сухую погоду видимость может ухудшаться дымом, пылью или мглою.
Явления - указаны атмосферные явления, наблюдавшиеся в срок или в последний час перед сроком; фигурными скобками обозначены явления, наблюдавшиеся между сроками (за 1-3 часа до срока); квадратными скобками обозначены град или гололедные отложения с указанием их диаметра в мм.
Облачность - указаны через наклонную черту общая и нижняя облачность в баллах и высота нижней границы облаков в метрах; квадратными скобками обозначены формы облаков: Ci - перистые, Cs - перисто-слоистые, Cc - перисто-кучевые, Ac - высококучевые, As - высокослоистые, Sc - слоисто-кучевые, Ns - слоисто-дождевые, Cu - кучевые, Cb - кучево-дождевые. Подробнее классификацию облаков см. в Атласе облаков (PDF).
T - Температура воздуха - температура, измеренная на высоте 2 м над землей.
Td - Температура точки росы - температура, при понижении до которой содержащийся в воздухе водяной пар достигнет насыщения.
f - Относительная влажность воздуха - влажноcть воздуха, измеренная на высоте 2 м над землей.
Te - Эффективная температура - температура, которую ощущает одетый по сезону человек в тени. Характеристика душности погоды. При расчете учитывается влияние влажности воздуха и скорости ветра на теплоощущения человека.
Tes - Эффективная температура на солнце - температура, которую ощущает человек, с поправкой на солнечный нагрев. Характеристика знойности погоды. Зависит от высоты солнца над горизонтом, облачности и скорости ветра. Ночью, в пасмурную погоду, а также при ветре 12 м/с и более поправка равна нулю.
P - Атмосферное давление - приведенное к уровню моря атмосферное давление.
Po - Атмосферное давление - измеренное на уровне метеостанции атмосферное давление.
Tmin - Минимальная температура - минимум температуры воздуха на высоте 2 м над землей.
Tmax - Максимальная температура - максимум температуры воздуха на высоте 2 м над землей.
R - Количество осадков - Количество выпавших осадков за период времени, мм. При наведении курсора мыши на число - период времени, за который выпало указанное количество осадков.
R24 - Количество осадков - Количество выпавших осадков за 24 часа, мм.
S - Снежный покров - Высота снежного покрова, см. При наведении курсора мыши на число - состояние снежного покрова и степень покрытия местности в баллах.